Gillette, WY

4:25 PM MDT on May 22, 2017 (GMT -0600)
Gillette-Campbell County

Weather History for KGCC - September, 2012

Change the Weather History Date:

Tuesday, September 4, 2012

  Actual Average Record
Temperature  
Mean Temperature 62 °F 64 °F  
Max Temperature 81 °F 80 °F 98 °F (1978)
Min Temperature 43 °F 48 °F 25 °F (1962)
Degree Days  
Heating Degree Days 3 4  
Month to date heating degree days 3 15  
Since 1 July heating degree days 30 72  
Cooling Degree Days 0 3  
Month to date cooling degree days 18 12  
Year to date cooling degree days 774 472  
Growing Degree Days 13 (Base 50)    
Moisture  
Dew Point 24 °F    
Average Humidity 31    
Maximum Humidity 52    
Minimum Humidity 9    
Precipitation  
Precipitation 0.00 in 0.04 in 0.67 in (1951)
Month to date precipitation 0.00 0.14  
Year to date precipitation 7.57 10.62  
Sea Level Pressure  
Sea Level Pressure 29.92 in    
Wind  
Wind Speed 12 mph (NNW)    
Max Wind Speed 24 mph    
Max Gust Speed 30 mph    
Visibility 10 miles    
Events      
T = Trace of Precipitation, MM = Missing Value Source: NWS Daily Summary

Daily Weather History Graph

Daily Weather History Graph

Search for Another Location

Airport or City:

Trip Planner

Search our weather history database for the weather conditions in past years. The results will help you decide how hot, cold, wet, or windy it might be!

Date:

Astronomy

Sep. 04, 2012 Rise Set
Actual Time 6:29 AM MDT 7:32 PM MDT
Civil Twilight 5:59 AM MDT 8:01 PM MDT
Nautical Twilight 5:23 AM MDT 8:37 PM MDT
Astronomical Twilight 4:46 AM MDT 9:14 PM MDT
Moon 9:13 PM MDT (9/4) 10:50 AM MDT (9/4)
Length of Visible Light 14h 02m
Length of Day
13h 02m
Waning Gibbous, 83% of the Moon is Illuminated
Sep 4
Waning Gibbous
Sep 8
Last Quarter
Sep 15
New
Sep 22
First Quarter
Sep 29
Full

Hourly Weather History & Observations

Time (MDT) Temp. Dew Point Humidity Pressure Visibility Wind Dir Wind Speed Gust Speed Precip Events Conditions
12:53 AM 51.1 °F 25.0 °F 36% 29.93 in 10.0 mi Calm Calm - N/A   Clear
1:53 AM 48.0 °F 24.1 °F 39% 29.92 in 10.0 mi Calm Calm - N/A   Clear
2:53 AM 45.0 °F 24.1 °F 44% 29.91 in 10.0 mi Calm Calm - N/A   Clear
3:53 AM 48.9 °F 27.0 °F 43% 29.88 in 10.0 mi East 4.6 mph - N/A   Clear
4:53 AM 61.0 °F 23.0 °F 23% 29.83 in 10.0 mi South 16.1 mph - N/A   Clear
5:53 AM 55.9 °F 23.0 °F 28% 29.86 in 10.0 mi Variable 3.5 mph - N/A   Clear
6:53 AM 60.1 °F 21.9 °F 23% 29.85 in 10.0 mi Variable 4.6 mph - N/A   Clear
7:35 AM 64.4 °F 19.4 °F 18% 29.97 in 10.0 mi SW 18.4 mph - N/A   Clear
7:53 AM 66.9 °F 19.9 °F 17% 29.87 in 10.0 mi SW 18.4 mph - N/A   Clear
8:53 AM 75.9 °F 19.0 °F 12% 29.86 in 10.0 mi WSW 15.0 mph - N/A   Clear
9:53 AM 75.0 °F 19.9 °F 13% 29.88 in 10.0 mi WNW 16.1 mph - N/A   Clear
10:53 AM 75.9 °F 21.0 °F 13% 29.90 in 10.0 mi NNW 20.7 mph 28.8 mph N/A   Clear
11:53 AM 79.0 °F 21.0 °F 12% 29.89 in 10.0 mi NW 16.1 mph 20.7 mph N/A   Clear
12:53 PM 80.1 °F 17.1 °F 9% 29.87 in 10.0 mi WNW 12.7 mph 23.0 mph N/A   Clear
1:53 PM 81.0 °F 19.0 °F 10% 29.89 in 10.0 mi NNW 15.0 mph 20.7 mph N/A   Clear
2:53 PM 80.1 °F 19.0 °F 10% 29.90 in 10.0 mi NNW 15.0 mph 25.3 mph N/A   Clear
3:53 PM 78.8 °F 19.4 °F 11% 30.00 in 10.0 mi NNW 15.0 mph - N/A   Clear
4:53 PM 78.1 °F 21.9 °F 12% 29.87 in 10.0 mi NNW 16.1 mph 21.9 mph N/A   Clear
5:53 PM 75.9 °F 23.0 °F 14% 29.90 in 10.0 mi North 12.7 mph - N/A   Clear
6:53 PM 72.0 °F 24.1 °F 17% 29.91 in 10.0 mi North 17.3 mph - N/A   Clear
7:53 PM 66.0 °F 27.0 °F 23% 29.95 in 10.0 mi North 10.4 mph - N/A   Clear
8:53 PM 64.9 °F 30.9 °F 28% 29.98 in 10.0 mi NNE 20.7 mph 28.8 mph N/A   Clear
9:53 PM 59.0 °F 35.1 °F 41% 30.04 in 10.0 mi North 19.6 mph - N/A   Clear
10:53 PM 53.1 °F 35.1 °F 50% 30.08 in 10.0 mi NNW 5.8 mph - N/A   Clear
11:53 PM 50.0 °F 34.0 °F 54% 30.08 in 10.0 mi North 6.9 mph - N/A   Clear